Waarnemingen

Advertentie
Mijn weer
Woensdrecht, Nederland (6340): temperatuur & dauwpunt: 14.07.2018 18:00:00 - 20.07.2018 18:00:00 (CEST)Woensdrecht, Nederland (6340): temperatuur 5cm: 14.07.2018 18:00:00 - 20.07.2018 18:00:00 (CEST)Woensdrecht, Nederland (6340): windsnelheid & windstoten: 14.07.2018 18:00:00 - 20.07.2018 18:00:00 (CEST)Woensdrecht, Nederland (6340): windrichting: 14.07.2018 18:00:00 - 20.07.2018 18:00:00 (CEST)Woensdrecht, Nederland (6340): luchtdruk: 14.07.2018 18:00:00 - 20.07.2018 18:00:00 (CEST)Woensdrecht, Nederland (6340): zicht: 14.07.2018 18:00:00 - 20.07.2018 18:00:00 (CEST)Woensdrecht, Nederland (6340): neerslag: 14.07.2018 18:00:00 - 20.07.2018 18:00:00 (CEST)
Datum & Tijd tt [°C] td [°C] tt 5cm [°C] ff [km/u] ff [kn] fx [km/u] fx [kn] dd ppp [hPa] vv [km] rr [mm]
20.07.2018 18:00:00 23,8 8,5 24,5 15 8 25 14 N 1013,0 10 0,0
20.07.2018 17:00:00 24,5 8,0 26,2 16 9 22 12 NW 1013,4 10 0,0
20.07.2018 16:00:00 25,4 9,2 27,8 16 9 32 18 WNW 1013,8 10 0,0
20.07.2018 15:00:00 25,0 11,0 29,9 16 9 29 16 W 1014,1 10 0,0
20.07.2018 14:00:00 25,4 11,4 29,9 15 8 25 14 W 1014,3 10 0,0
20.07.2018 13:00:00 24,7 12,8 28,5 11 6 22 12 WNW 1014,7 10 0,0
20.07.2018 12:00:00 24,3 11,5 27,6 8 4 18 10 - 1014,9 10 0,0
20.07.2018 11:00:00 22,3 11,9 25,5 5 3 14 8 NW 1015,0 10 0,0
20.07.2018 10:00:00 21,1 13,6 23,4 5 3 14 8 NNW 1015,2 10 0,0
20.07.2018 09:00:00 19,8 15,6 21,0 4 2 7 4 - 1015,4 10 0,0
20.07.2018 08:00:00 17,2 15,0 17,2 4 2 11 6 - 1015,5 8 0,0
20.07.2018 07:00:00 12,0 11,5 10,5 2 1 7 4 - 1015,6 10 0,0
20.07.2018 06:00:00 10,0 9,5 7,0 4 2 4 2 - 1015,9 10 0,0
20.07.2018 05:00:00 10,3 10,0 7,0 2 1 4 2 NO 1016,2 10 0,0
20.07.2018 04:00:00 11,1 10,6 7,6 2 1 4 2 NO 1016,4 10 0,0
20.07.2018 03:00:00 11,3 10,6 8,3 2 1 4 2 NO 1016,6 10 0,0
20.07.2018 02:00:00 12,3 10,9 9,4 0 0 4 2 N 1017,1 10 0,0
20.07.2018 01:00:00 13,2 11,1 9,9 2 1 7 4 - 1017,2 10 0,0
20.07.2018 00:00:00 13,7 11,4 11,0 2 1 4 2 - 1017,4 10 0,0
19.07.2018 23:00:00 15,9 11,7 13,5 5 3 11 6 N 1017,5 10 0,0
19.07.2018 22:00:00 18,8 11,4 17,9 8 4 14 8 NNO 1017,4 10 0,0
19.07.2018 21:00:00 21,6 10,0 21,6 11 6 25 14 N 1017,5 10 0,0
19.07.2018 20:00:00 23,3 8,6 23,9 13 7 25 14 N 1017,3 10 0,0
19.07.2018 19:00:00 24,8 8,4 25,7 13 7 29 16 N 1017,4 10 0,0
19.07.2018 18:00:00 25,0 8,1 27,2 18 10 32 18 N 1017,6 10 0,0
19.07.2018 17:00:00 25,7 10,2 27,9 15 8 29 16 NNW 1017,9 10 0,0
19.07.2018 16:00:00 25,0 11,0 28,1 15 8 25 14 WNW 1018,4 10 0,0
19.07.2018 15:00:00 24,4 11,6 28,1 15 8 25 14 W 1018,4 10 0,0
19.07.2018 14:00:00 24,9 12,4 28,8 13 7 25 14 - 1018,4 10 0,0
19.07.2018 13:00:00 23,6 12,0 26,0 8 4 25 14 W 1018,8 10 0,0
19.07.2018 12:00:00 23,2 11,6 26,5 9 5 25 14 - 1019,0 10 0,0
19.07.2018 11:00:00 23,1 12,5 26,6 9 5 18 10 NNO 1019,1 10 0,0
19.07.2018 10:00:00 21,6 15,1 23,8 9 5 18 10 NNO 1019,2 10 0,0
19.07.2018 09:00:00 19,8 15,9 21,6 8 4 14 8 N 1019,1 10 0,0
19.07.2018 08:00:00 17,7 16,5 17,3 5 3 7 4 N 1019,2 3,8 0,0
19.07.2018 07:00:00 13,1 12,4 12,1 2 1 4 2 - 1019,2 7 0,0
19.07.2018 06:00:00 10,9 10,2 7,9 0 0 4 2 N 1019,0 10 0,0
19.07.2018 05:00:00 11,0 10,4 8,4 0 0 4 2 N 1019,2 10 0,0
19.07.2018 04:00:00 11,2 10,6 8,5 2 1 4 2 NO 1019,1 10 0,0
19.07.2018 03:00:00 11,4 10,4 8,6 0 0 4 2 N 1019,3 10 0,0
19.07.2018 02:00:00 12,2 11,2 9,6 2 1 4 2 NO 1019,4 10 0,0
19.07.2018 01:00:00 12,9 11,3 10,6 2 1 4 2 NO 1019,3 10 0,0
19.07.2018 00:00:00 14,2 11,9 11,5 2 1 4 2 - 1019,2 10 0,0
18.07.2018 23:00:00 16,0 12,6 13,5 2 1 7 4 - 1019,2 10 0,0
18.07.2018 22:00:00 19,2 11,4 18,1 8 4 14 8 N 1019,0 10 0,0
18.07.2018 21:00:00 21,0 12,2 21,1 9 5 22 12 N 1018,8 10 0,0
18.07.2018 20:00:00 21,9 11,2 22,8 16 9 25 14 N 1018,7 10 0,0
18.07.2018 19:00:00 23,1 11,9 25,1 16 9 25 14 NNW 1018,5 10 0,0
18.07.2018 18:00:00 24,2 12,4 26,6 11 6 32 18 NNW 1018,4 10 0,0
18.07.2018 17:00:00 24,8 13,2 26,5 24 13 36 19 W 1018,5 10 0,0
18.07.2018 16:00:00 24,5 13,4 29,0 13 7 29 16 W 1018,5 10 0,0
18.07.2018 15:00:00 24,0 9,3 28,7 11 6 22 12 - 1018,6 10 0,0
18.07.2018 14:00:00 22,9 12,1 24,3 9 5 22 12 W 1018,8 10 0,0
18.07.2018 13:00:00 22,3 12,7 25,8 13 7 22 12 W 1019,1 10 0,0
18.07.2018 12:00:00 22,2 10,9 26,0 15 8 25 14 WZW 1019,1 10 0,0
18.07.2018 11:00:00 20,5 11,9 23,7 11 6 22 12 WZW 1019,3 10 0,0
18.07.2018 10:00:00 19,1 13,0 21,8 11 6 18 10 WZW 1019,3 10 0,0
18.07.2018 09:00:00 18,6 12,8 19,8 11 6 18 10 WZW 1019,0 10 0,0
18.07.2018 08:00:00 17,0 11,8 16,9 4 2 11 6 - 1018,8 10 0,0
18.07.2018 07:00:00 11,5 10,9 11,2 2 1 4 2 - 1018,7 10 0,0
18.07.2018 06:00:00 10,3 10,0 7,0 4 2 4 2 - 1018,5 10 0,0
18.07.2018 05:00:00 10,4 10,1 7,5 0 0 4 2 N 1018,5 10 0,0
18.07.2018 04:00:00 11,1 10,6 8,2 0 0 0 0 N 1018,5 10 0,0
18.07.2018 03:00:00 11,5 11,1 8,9 0 0 0 0 N 1018,5 10 0,0
18.07.2018 02:00:00 11,5 11,0 9,2 0 0 4 2 N 1018,4 10 0,0
18.07.2018 01:00:00 12,4 11,7 10,1 0 0 4 2 N 1018,5 10 0,0
18.07.2018 00:00:00 13,9 12,2 11,2 2 1 4 2 - 1018,4 10 0,0
17.07.2018 23:00:00 14,5 12,0 12,1 0 0 4 2 N 1018,2 10 0,0
17.07.2018 22:00:00 16,6 12,5 15,1 2 1 14 8 - 1017,7 10 0,0
17.07.2018 21:00:00 20,3 11,2 20,2 9 5 18 10 NW 1017,4 10 0,0
17.07.2018 20:00:00 21,4 11,4 22,5 15 8 25 14 WNW 1017,0 10 0,0
17.07.2018 19:00:00 21,8 11,0 23,6 16 9 36 19 WNW 1017,0 10 0,0
17.07.2018 18:00:00 22,0 11,7 24,4 22 12 43 23 WNW 1016,9 10 0,0
17.07.2018 17:00:00 22,4 10,7 25,1 31 17 43 23 W 1016,7 10 0,0
17.07.2018 16:00:00 23,2 11,5 26,5 28 15 43 23 W 1016,4 10 0,0
17.07.2018 15:00:00 23,6 12,6 26,9 22 12 36 19 W 1016,2 10 0,0
17.07.2018 14:00:00 22,9 13,5 26,4 21 11 32 18 W 1015,9 10 0,0
17.07.2018 13:00:00 23,3 14,8 25,3 16 9 29 16 W 1015,7 10 0,0
17.07.2018 12:00:00 22,1 15,1 23,9 18 10 32 18 WZW 1015,5 10 0,0
17.07.2018 11:00:00 22,0 16,0 23,3 16 9 32 18 WZW 1015,2 10 0,0
17.07.2018 10:00:00 20,1 16,7 21,0 21 11 29 16 WZW 1014,9 10 0,0
17.07.2018 09:00:00 18,8 16,1 19,5 16 9 25 14 WZW 1014,6 9 0,0
17.07.2018 08:00:00 17,8 14,2 17,8 11 6 14 8 WZW 1014,0 10 0,0
17.07.2018 07:00:00 16,6 12,5 15,2 9 5 14 8 WZW 1013,9 10 0,0
17.07.2018 06:00:00 16,4 12,3 14,4 9 5 14 8 ZW 1013,5 10 0,0
17.07.2018 05:00:00 16,4 14,5 14,6 5 3 11 6 ZZW 1013,4 10 0,0
17.07.2018 04:00:00 15,8 15,7 14,9 2 1 4 2 - 1013,4 5 0,0
17.07.2018 03:00:00 15,6 15,5 15,2 2 1 4 2 - 1013,5 9 0,0
17.07.2018 02:00:00 16,7 16,1 14,8 2 1 22 12 - 1013,7 5 0,0
17.07.2018 01:00:00 17,3 16,0 16,3 2 1 11 6 N 1013,4 2,8 0,0
17.07.2018 00:00:00 17,3 16,1 17,1 4 2 11 6 - 1013,4 10 0,0
16.07.2018 23:00:00 17,3 16,7 17,3 4 2 14 8 - 1013,0 10 0,0
16.07.2018 22:00:00 18,4 14,9 17,6 8 4 25 14 O 1013,5 6 1,2
16.07.2018 21:00:00 18,5 15,7 18,1 16 9 50 27 ZZO 1013,2 10 6,5
16.07.2018 20:00:00 20,1 16,4 19,9 21 11 40 21 ZW 1012,7 10 0,6
16.07.2018 19:00:00 28,4 9,8 29,1 11 6 22 12 NO 1011,3 10 0,0
16.07.2018 18:00:00 29,5 9,6 32,7 15 8 25 14 NO 1011,4 10 0,0
16.07.2018 17:00:00 30,4 10,0 34,2 5 3 18 10 N 1011,7 10 0,0
16.07.2018 16:00:00 31,1 9,2 35,1 5 3 22 12 N 1012,1 10 0,0
16.07.2018 15:00:00 29,7 9,5 33,6 5 3 18 10 - 1012,4 10 0,0
16.07.2018 14:00:00 28,8 9,6 32,0 8 4 18 10 - 1012,8 10 0,0
16.07.2018 13:00:00 28,7 8,9 33,0 8 4 22 12 - 1013,2 10 0,0
16.07.2018 12:00:00 28,2 9,0 32,5 9 5 22 12 O 1013,3 10 0,0
16.07.2018 11:00:00 27,4 8,4 31,1 11 6 22 12 O 1013,5 10 0,0
16.07.2018 10:00:00 25,2 11,2 28,5 9 5 14 8 O 1013,6 10 0,0
16.07.2018 09:00:00 23,2 11,7 25,3 5 3 14 8 O 1013,9 10 0,0
16.07.2018 08:00:00 20,2 10,8 20,3 4 2 11 6 O 1013,9 10 0,0
16.07.2018 07:00:00 14,9 11,7 13,5 4 2 7 4 - 1014,0 10 0,0
16.07.2018 06:00:00 13,8 11,0 9,9 5 3 11 6 O 1014,0 10 0,0
16.07.2018 05:00:00 12,7 10,6 10,8 8 4 11 6 O 1013,9 10 0,0
16.07.2018 04:00:00 13,3 12,0 10,0 5 3 7 4 O 1014,1 10 0,0
16.07.2018 03:00:00 14,6 12,9 10,7 4 2 4 2 NO 1014,3 10 0,0
16.07.2018 02:00:00 15,9 13,7 12,5 4 2 7 4 ONO 1014,6 10 0,0
16.07.2018 01:00:00 17,4 14,3 14,8 4 2 4 2 ONO 1014,9 10 0,0
16.07.2018 00:00:00 17,9 14,2 15,5 2 1 4 2 - 1014,9 10 0,0
15.07.2018 23:00:00 19,2 15,0 17,5 4 2 7 4 - 1014,9 10 0,0
15.07.2018 22:00:00 22,6 13,0 21,6 5 3 14 8 N 1014,9 10 0,0
15.07.2018 21:00:00 25,2 12,4 25,4 15 8 22 12 N 1014,5 10 0,0
15.07.2018 20:00:00 27,3 10,5 28,4 13 7 25 14 NNO 1014,2 10 0,0
15.07.2018 19:00:00 28,3 8,6 30,2 16 9 29 16 N 1014,1 10 0,0
15.07.2018 18:00:00 28,3 9,5 28,2 16 9 29 16 NO 1014,5 10 0,0
15.07.2018 17:00:00 27,6 9,7 28,8 8 4 25 14 - 1015,0 10 0,0
15.07.2018 16:00:00 28,2 7,9 31,0 9 5 29 16 - 1015,2 10 0,0
15.07.2018 15:00:00 28,5 7,9 32,5 9 5 29 16 - 1015,6 10 0,0
15.07.2018 14:00:00 27,6 7,7 32,1 9 5 22 12 - 1016,3 10 0,0
15.07.2018 13:00:00 26,5 9,5 30,6 8 4 22 12 - 1016,9 10 0,0
15.07.2018 12:00:00 25,8 11,0 29,6 11 6 22 12 ONO 1017,2 10 0,0
15.07.2018 11:00:00 24,9 10,2 28,9 11 6 18 10 ONO 1017,5 10 0,0
15.07.2018 10:00:00 22,4 12,6 25,6 9 5 14 8 O 1017,7 10 0,0
15.07.2018 09:00:00 20,2 12,9 22,2 9 5 14 8 O 1017,7 10 0,0
15.07.2018 08:00:00 17,8 12,7 18,2 8 4 14 8 ONO 1017,7 10 0,0
15.07.2018 07:00:00 15,2 12,3 14,3 8 4 14 8 O 1017,4 10 0,0
15.07.2018 06:00:00 13,7 12,5 10,3 9 5 14 8 O 1017,7 10 0,0
15.07.2018 05:00:00 14,3 12,7 11,0 9 5 14 8 O 1018,0 10 0,0
15.07.2018 04:00:00 12,3 11,3 10,7 8 4 11 6 O 1018,2 10 0,0
15.07.2018 03:00:00 14,3 12,6 10,9 9 5 11 6 ONO 1018,4 10 0,0
15.07.2018 02:00:00 15,1 12,6 12,2 11 6 11 6 ONO 1018,7 10 0,0
15.07.2018 01:00:00 14,4 11,2 12,8 9 5 11 6 ONO 1018,9 10 0,0
15.07.2018 00:00:00 16,7 11,4 13,4 5 3 7 4 O 1018,8 10 0,0
14.07.2018 23:00:00 17,5 10,2 14,3 5 3 14 8 ONO 1018,8 10 0,0
14.07.2018 22:00:00 20,7 9,2 19,1 9 5 14 8 NNO 1018,4 10 0,0
14.07.2018 21:00:00 23,4 10,0 23,4 11 6 22 12 NNO 1018,3 10 0,0
14.07.2018 20:00:00 24,8 10,2 25,9 15 8 25 14 NNO 1018,4 10 0,0
14.07.2018 19:00:00 25,5 9,9 28,2 13 7 22 12 NO 1018,7 10 0,0
14.07.2018 18:00:00 25,8 10,1 29,0 13 7 25 14 NNO 1018,8 10 0,0

tt = temperatuur
td = dauwpunt
tt 5cm = temperatuur 5cm
ff = windsnelheid
fx = windstoten
dd = windrichting
ppp = luchtdruk
vv = zicht
rr = neerslag

Weerstations in de omgeving